Tracking 19575 objects as of 19-Feb-2019
HD Live streaming from Space Station
objects crossing your sky now

ABS 3

Track ABS 3 now!
ABS 3 is classified as:


NORAD ID: 24901
Int'l Code: 1997-042A
Perigee: 36,048.3 km
Apogee: 36,109.1 km
Inclination: 6.0 °
Period: 1,450.7 minutes
Semi major axis: 42449 km
RCS: 10 m2 (large)
Launch date: August 19, 1997
Source: People's Republic of China (PRC)
Launch site: Xichang Space Center, China (XSC)

Most powerful telecommunications satellite in service in the Asia-Pacific region; 30 C-band, 24 Ku-band transponders; 190 high fidelity channels and 50,000 simultaneous telephone links.
aabbcc
Your satellite tracking list
Your tracking list is empty




NASA's NSSDC Master Catalog

Two Line Element Set (TLE):
1 24901U 97042A   19049.79215812 -.00000158 +00000-0 +00000-0 0  9991
2 24901 006.0006 060.1104 0007163 238.5241 314.5740 00.99263708078670
Source of the keplerian elements: AFSPC